[[{"header":{"parameterUnit":"m.s-1","parameterCategory":1,"la1":30.2991,"la2":30.254,"lo1":-89.0895,"lo2":-89.0444,"dy":0.0017,"dx":0.0017,"nx":28,"ny":28,"refTime":"2026-01-09T03:00:00:Z","depth":0,"parameterNumber":2,"parameterNumberName":"U-component_of_WINDS"},"data":[0,0,0,0,0,0,0,0,0,0,0,0,0,0,0,0,0,0,0,0,0,0,0,0,0,0,0,0,0,0,0,0,0,0,0,0,0,0,0,0,0,0,0,0,0,0,0,0,0,0,0,0,0,0,0,0,0,0,-3.4021,-3.4021,0,-3.4049,-3.405,-3.405,-3.3997,-3.3995,-3.3993,-3.3992,-3.4021,-3.4024,-3.4026,0,0,0,0,0,0,0,0,0,0,0,0,0,-3.3922,-3.3925,-3.4021,-3.4021,-3.4022,-3.4049,-3.405,-3.405,-3.3997,-3.3995,-3.3993,-3.3991,-3.4021,-3.4023,-3.4026,0,0,0,0,0,0,0,0,0,0,0,0,0,-3.396,-3.3925,-3.4021,-3.3999,-3.3997,-3.4049,-3.405,-3.405,-3.3998,-3.3995,-3.3992,-3.399,-3.402,-3.4023,-3.4027,-3.4102,0,0,-3.4038,-3.4039,0,0,0,0,0,0,0,0,-3.3957,-3.3963,-3.4002,-3.4,-3.3999,-3.4017,-3.4026,-3.4067,-3.3998,-3.3998,-3.3992,-3.3989,-3.4022,-3.4025,-3.4036,-3.4103,-3.4104,-3.4038,-3.404,-3.4042,-3.4043,0,0,0,0,0,0,0,-3.3955,-3.3962,-3.4032,-3.4002,-3.4,-3.3988,-3.399,-3.4033,-3.4024,-3.3997,-3.3994,-3.3998,-3.4021,-3.4033,-3.4037,-3.4105,-3.4038,-3.4041,-3.4043,-3.4045,-3.4235,-3.4238,0,0,0,0,0,0,-3.3955,-3.396,-3.4031,-3.4033,-3.3971,-3.3992,-3.3994,-3.4014,-3.4024,-3.4023,-3.4,-3.3995,-3.4028,-3.4032,-3.4037,-3.4126,-3.4042,-3.4045,-3.4047,-3.4232,-3.4236,-3.4239,0,0,0,0,0,0,-3.3953,-3.3962,-3.403,-3.3995,-3.4003,-3.3996,-3.4018,-3.4016,-3.4028,-3.4025,-3.4024,-3.4014,-3.4026,-3.4032,-3.4086,-3.4126,-3.4047,-3.405,-3.4229,-3.4233,-3.4237,-3.4304,0,0,0,0,0,0,-3.3951,-3.3962,-3.399,-3.3996,-3.4005,-3.4078,-3.4021,-3.4018,-3.4034,-3.4028,-3.4038,-3.4037,-3.4025,-3.4081,-3.409,-3.413,-3.4053,-3.4225,-3.4231,-3.4236,-3.4298,-3.431,-3.432,0,0,0,0,0,-3.3947,-3.4007,-3.3992,-3.4,-3.404,-3.4081,-3.4086,-3.4069,-3.4038,-3.4066,-3.4065,-3.4037,-3.4121,-3.4087,-3.4096,-3.4138,-3.4223,-3.4229,-3.4235,-3.4293,-3.4307,-3.432,0,0,0,0,0,0,-3.4006,-3.4008,-3.399,-3.4054,-3.4068,-3.4072,-3.4107,-3.4085,-3.4108,-3.4101,-3.4081,-3.4083,-3.4142,-3.4145,-3.4108,-3.4211,-3.4166,-3.4175,-3.4207,-3.422,-3.4231,-3.4229,-3.4056,0,0,0,0,0,-3.4026,-3.4058,-3.4059,-3.4115,-3.4123,-3.4114,-3.4131,-3.4117,-3.4131,-3.4136,-3.4138,-3.4152,-3.4182,-3.4201,-3.4228,-3.4298,-3.43,-3.4332,-3.4343,-3.4352,-3.4359,-3.4397,-3.4411,-3.426,-3.426,-3.426,0,0,-3.4068,-3.4074,-3.4095,-3.4127,-3.4136,-3.417,-3.4119,-3.4157,-3.4183,-3.4142,-3.4192,-3.4195,-3.4209,-3.4272,-3.4299,-3.4277,-3.4402,-3.436,-3.4367,-3.437,-3.4405,-3.4419,-3.4432,-3.4264,-3.4264,-3.4263,0,0,-3.4163,-3.417,-3.4218,-3.4228,-3.4242,-3.4236,-3.4247,-3.4255,-3.4255,-3.4306,-3.4276,-3.4306,-3.4357,-3.4368,-3.438,-3.448,-3.4456,-3.449,-3.4547,-3.4584,-3.4595,-3.4606,-3.4641,-3.4654,-3.4497,-3.4498,-3.4498,0,-3.4213,-3.4264,-3.4245,-3.4286,-3.4301,-3.4266,-3.4314,-3.4325,-3.4347,-3.4358,-3.4333,-3.4396,-3.4403,-3.4468,-3.4492,-3.4504,-3.4516,-3.4488,-3.4595,-3.4606,-3.4615,-3.4648,-3.4662,-3.4502,-3.4501,-3.4501,-3.45,0,-3.4325,-3.4361,-3.4398,-3.442,-3.4439,-3.4484,-3.4472,-3.4494,-3.4479,-3.4476,-3.4528,-3.4536,-3.4564,-3.4578,-3.4564,-3.4641,-3.4626,-3.4599,-3.4552,-3.4634,-3.4665,-3.4677,-3.4507,-3.4506,-3.4505,-3.4504,0,0,-3.4456,-3.4468,-3.4482,-3.4492,-3.4505,-3.4532,-3.4575,-3.4602,-3.4621,-3.4638,-3.4674,-3.4718,-3.4692,-3.4707,-3.4694,-3.4726,-3.4805,-3.4694,-3.4694,-3.4714,-3.489,-3.491,-3.4925,-3.4789,-3.4791,-3.4793,-3.4888,0,-3.4549,-3.4623,-3.4608,-3.4681,-3.4713,-3.4681,-3.4718,-3.4731,-3.4729,-3.4756,-3.4755,-3.4786,-3.475,-3.4759,-3.4789,-3.4789,-3.4839,-3.4782,-3.4821,-3.4823,-3.4818,-3.4941,-3.4963,-3.5052,-3.49,-3.4902,-3.4904,0,-3.4668,-3.4689,-3.4764,-3.4773,-3.4786,-3.482,-3.4843,-3.487,-3.4884,-3.488,-3.4897,-3.4878,-3.4921,-3.4875,-3.4934,-3.4896,-3.4911,-3.4914,-3.4917,-3.4919,-3.4868,-3.4946,-3.508,-3.5093,-3.4923,-3.4921,-3.492,0,-3.4755,-3.4803,-3.4854,-3.4863,-3.4874,-3.4899,-3.4905,-3.4916,-3.4933,-3.4954,-3.4965,-3.4992,-3.5006,-3.5027,-3.5015,-3.4983,-3.5077,-3.503,-3.5075,-3.5075,-3.5095,-3.5094,-3.5232,-3.5107,-3.5106,-3.5106,-3.5106,0,-3.486,-3.4907,-3.4893,-3.4925,-3.4977,-3.496,-3.5012,-3.5014,-3.5025,-3.5056,-3.503,-3.506,-3.5044,-3.5073,-3.5065,-3.5115,-3.5122,-3.512,-3.5117,-3.5122,-3.5122,-3.5131,-3.5124,-3.511,-3.5109,-3.5108,-3.5108,0,-3.4966,-3.4958,-3.5012,-3.5018,-3.5021,-3.5059,-3.5065,-3.5094,-3.5091,-3.5131,-3.514,-3.5135,-3.5168,-3.5159,-3.5195,-3.5189,-3.5252,-3.5242,-3.5248,-3.5245,-3.529,-3.5285,-3.5439,-3.5458,-3.5321,-3.5322,-3.5323,0,-3.5033,-3.5068,-3.5079,-3.5098,-3.5106,-3.5137,-3.5155,-3.514,-3.516,-3.5178,-3.5206,-3.5236,-3.526,-3.5314,-3.5314,-3.5341,-3.5331,-3.5383,-3.5335,-3.5339,-3.5331,-3.5329,-3.5332,-3.5392,-3.5394,-3.5395,-3.5396,0,-3.5152,-3.5147,-3.5173,-3.5199,-3.5221,-3.524,-3.5257,-3.5274,-3.5261,-3.5284,-3.5318,-3.5336,-3.5373,-3.5403,-3.5429,-3.5435,-3.5413,-3.5411,-3.5423,-3.5428,-3.5429,-3.5428,-3.5273,-3.5407,-3.5406,-3.5405,-3.5405,-3.5404,-3.524,-3.527,-3.5283,-3.5313,-3.5324,-3.5341,-3.5369,-3.537,-3.5397,-3.5426,-3.5416,-3.5454,-3.5467,-3.5499,-3.5508,-3.5538,-3.5518,-3.5535,-3.554,-3.5544,-3.5549,-3.5425,-3.5543,-3.5542,-3.5542,-3.5542,-3.5541,0,-3.5358,-3.5365,-3.5393,-3.5417,-3.5441,-3.5419,-3.5437,-3.5459,-3.5493,-3.5507,-3.5531,-3.5569,-3.5599,-3.5602,-3.563,-3.5653,-3.5644,-3.5661,-3.5659,-3.566,-3.5565,-3.5552,-3.5668,-3.5668,-3.5668,-3.5668,-3.5668,-3.5668,-3.5422,-3.5472,-3.5468,-3.5524,-3.553,-3.5567,-3.5579,-3.5594,-3.5605,-3.5649,-3.5674,-3.5676,-3.5685,-3.5714,-3.5741,-3.5741,-3.5752,-3.5773,-3.5769,-3.568,-3.5667,-3.5655,-3.5642,-3.5775,-3.5776,-3.5861,-3.5862,-3.5863]},{"header":{"parameterUnit":"m.s-1","parameterCategory":1,"la1":30.2991,"la2":30.254,"lo1":-89.0895,"lo2":-89.0444,"dy":0.0017,"dx":0.0017,"nx":28,"ny":28,"refTime":"2026-01-09T03:00:00:Z","depth":0,"parameterNumber":3,"parameterNumberName":"V-component_of_WINDS"},"data":[0,0,0,0,0,0,0,0,0,0,0,0,0,0,0,0,0,0,0,0,0,0,0,0,0,0,0,0,0,0,0,0,0,0,0,0,0,0,0,0,0,0,0,0,0,0,0,0,0,0,0,0,0,0,0,0,0,0,1.842,1.842,0,1.8414,1.8414,1.8414,1.8395,1.8394,1.8394,1.8393,1.8386,1.8386,1.8386,0,0,0,0,0,0,0,0,0,0,0,0,0,1.8416,1.8416,1.842,1.842,1.842,1.8414,1.8414,1.8414,1.8395,1.8394,1.8394,1.8393,1.8386,1.8386,1.8386,0,0,0,0,0,0,0,0,0,0,0,0,0,1.8414,1.8416,1.842,1.841,1.8409,1.8414,1.8414,1.8414,1.8395,1.8394,1.8394,1.8393,1.8385,1.8386,1.8386,1.8401,0,0,1.8387,1.8387,0,0,0,0,0,0,0,0,1.8414,1.8415,1.8412,1.8411,1.841,1.8405,1.841,1.841,1.8395,1.84,1.8393,1.8393,1.8392,1.8392,1.8392,1.84,1.84,1.8387,1.8387,1.8387,1.8387,0,0,0,0,0,0,0,1.8415,1.8415,1.8418,1.8412,1.841,1.8406,1.8405,1.841,1.84,1.84,1.8398,1.8398,1.8392,1.8392,1.8392,1.84,1.8387,1.8387,1.8387,1.8387,1.8423,1.8424,0,0,0,0,0,0,1.8416,1.8415,1.8418,1.8418,1.8411,1.8406,1.8405,1.8407,1.84,1.8398,1.8398,1.8397,1.8392,1.8392,1.8392,1.8411,1.8387,1.8387,1.8388,1.8422,1.8423,1.8424,0,0,0,0,0,0,1.8416,1.8417,1.8418,1.8416,1.8416,1.8407,1.8409,1.8407,1.8407,1.8399,1.8397,1.8401,1.8391,1.8391,1.8399,1.841,1.8388,1.8388,1.8421,1.8422,1.8423,1.8447,0,0,0,0,0,0,1.8416,1.8417,1.8422,1.8416,1.8416,1.8426,1.841,1.8407,1.8408,1.8406,1.84,1.8399,1.8391,1.8399,1.84,1.841,1.8388,1.842,1.8422,1.8423,1.8445,1.8449,1.8452,0,0,0,0,0,1.8416,1.8428,1.8422,1.8423,1.8423,1.8427,1.8427,1.8418,1.8409,1.8415,1.841,1.8399,1.8409,1.84,1.8401,1.8411,1.8419,1.8421,1.8423,1.8444,1.8448,1.8452,0,0,0,0,0,0,1.8433,1.8427,1.8421,1.8431,1.843,1.8424,1.843,1.8422,1.8423,1.8421,1.8409,1.8408,1.8419,1.8415,1.8406,1.8426,1.8412,1.8414,1.8428,1.8432,1.8436,1.8437,1.8388,0,0,0,0,0,1.8439,1.8443,1.8437,1.8447,1.8447,1.8439,1.844,1.8434,1.8432,1.8431,1.8426,1.8425,1.8428,1.843,1.8431,1.8445,1.8444,1.8452,1.8456,1.8458,1.8461,1.847,1.8474,1.843,1.8429,1.8429,0,0,1.8449,1.8446,1.8449,1.845,1.8449,1.8454,1.8438,1.8444,1.8448,1.8431,1.844,1.8437,1.8434,1.8446,1.8451,1.8443,1.8473,1.8461,1.8463,1.8463,1.8472,1.8476,1.848,1.8431,1.843,1.843,0,0,1.8472,1.8469,1.8478,1.8478,1.8476,1.8471,1.8474,1.8469,1.8467,1.8475,1.8464,1.8469,1.8473,1.8473,1.8473,1.8499,1.849,1.8499,1.8517,1.8526,1.853,1.8533,1.8544,1.8548,1.8501,1.8501,1.8501,0,1.8485,1.8492,1.8484,1.8491,1.8493,1.848,1.849,1.8489,1.8488,1.849,1.8482,1.849,1.8486,1.8499,1.8506,1.8506,1.8509,1.85,1.853,1.8533,1.8536,1.8547,1.8551,1.8503,1.8503,1.8503,1.8502,0,1.851,1.8516,1.8523,1.8525,1.8527,1.8535,1.8529,1.8532,1.8526,1.8522,1.8532,1.8529,1.8531,1.8534,1.8527,1.8546,1.8542,1.8532,1.8518,1.8542,1.8552,1.8555,1.8505,1.8504,1.8504,1.8504,0,0,1.8541,1.854,1.8543,1.8545,1.8543,1.8548,1.8557,1.856,1.8564,1.8564,1.8573,1.8578,1.857,1.8571,1.8564,1.8572,1.8596,1.8562,1.8562,1.857,1.8619,1.8628,1.8633,1.859,1.859,1.8591,1.862,0,1.8564,1.858,1.8573,1.859,1.8596,1.8585,1.8593,1.8594,1.8591,1.8597,1.8593,1.8598,1.8586,1.8587,1.8594,1.8591,1.8606,1.8589,1.8598,1.8598,1.86,1.8637,1.8645,1.8673,1.8624,1.8624,1.8625,0,1.8592,1.8596,1.8613,1.8614,1.8616,1.8624,1.8628,1.8633,1.8634,1.8632,1.8634,1.8626,1.8636,1.8622,1.8636,1.8624,1.8628,1.8627,1.8628,1.8629,1.8614,1.8641,1.8682,1.8687,1.863,1.863,1.863,0,1.8616,1.8625,1.8637,1.8639,1.8639,1.8645,1.8645,1.8646,1.865,1.8653,1.8656,1.866,1.8663,1.8666,1.8661,1.8651,1.8676,1.8661,1.8676,1.8676,1.8682,1.8682,1.8725,1.8682,1.8682,1.8682,1.8682,0,1.8642,1.8654,1.8649,1.8656,1.867,1.8663,1.8676,1.8675,1.8677,1.8685,1.8675,1.8682,1.8674,1.8681,1.8676,1.869,1.8691,1.869,1.8689,1.8691,1.8692,1.8694,1.8693,1.8683,1.8683,1.8682,1.8682,0,1.8671,1.8668,1.8681,1.8681,1.8682,1.8692,1.8692,1.87,1.8698,1.8708,1.871,1.8706,1.8714,1.8709,1.8716,1.8714,1.8732,1.8728,1.8733,1.8732,1.8748,1.8747,1.8795,1.8802,1.8753,1.8753,1.8754,0,1.8688,1.8698,1.87,1.8705,1.8707,1.8715,1.872,1.8714,1.8719,1.8723,1.8731,1.8738,1.8744,1.8758,1.8756,1.8762,1.8759,1.8775,1.8759,1.8763,1.8761,1.8762,1.8764,1.8779,1.8779,1.878,1.878,0,1.8721,1.872,1.8727,1.8735,1.8741,1.8746,1.875,1.8755,1.875,1.8756,1.8766,1.877,1.878,1.8788,1.8794,1.8795,1.8787,1.8785,1.8789,1.8793,1.8796,1.8797,1.8743,1.8784,1.8784,1.8783,1.8783,1.8783,1.8745,1.8754,1.8758,1.8768,1.8771,1.8776,1.8785,1.8784,1.8792,1.8801,1.8797,1.8808,1.8811,1.8819,1.8821,1.883,1.8824,1.8829,1.883,1.8832,1.8836,1.8794,1.8831,1.8831,1.8831,1.8831,1.8831,0,1.8779,1.8782,1.879,1.8799,1.8806,1.88,1.8805,1.8812,1.8823,1.8827,1.8834,1.8846,1.8855,1.8855,1.8863,1.8871,1.8868,1.8873,1.8873,1.8874,1.884,1.8837,1.8876,1.8876,1.8876,1.8876,1.8876,1.8876,1.8797,1.8813,1.8813,1.8831,1.8833,1.8846,1.885,1.8855,1.8859,1.8874,1.8882,1.8882,1.8885,1.8894,1.8903,1.8902,1.8907,1.8914,1.8913,1.8881,1.8876,1.8872,1.8869,1.8914,1.8914,1.8946,1.8947,1.8947]}]]